Time,TemperatureF,DewpointF,PressureIn,WindDirection,WindDirectionDegrees,WindSpeedMPH,WindSpeedGustMPH,Humidity,HourlyPrecipIn,Conditions,Clouds,dailyrainin,SolarRadiationWatts/m^2,SoftwareType,DateUTC
2013-07-03 00:00:00,61.1,56.2,29.93,SW,230,1.2,0.0,84,0.00,CLR,,0.00,0.0,WeatherDisplay:10.37,2013-07-02 22:00:00,
2013-07-03 00:05:00,60.6,56.1,29.93,SW,230,0.0,0.0,85,0.00,CLR,,0.00,0.0,WeatherDisplay:10.37,2013-07-02 22:05:00,
2013-07-03 00:10:00,60.2,55.7,29.93,SW,230,1.0,1.0,85,0.00,CLR,,0.00,0.0,WeatherDisplay:10.37,2013-07-02 22:10:00,
2013-07-03 00:15:00,59.6,55.1,29.92,SW,230,1.0,1.0,85,0.00,CLR,,0.00,0.0,WeatherDisplay:10.37,2013-07-02 22:15:00,
2013-07-03 00:20:00,59.2,55.0,29.92,SW,230,1.2,0.0,86,0.00,CLR,,0.00,0.0,WeatherDisplay:10.37,2013-07-02 22:20:00,
2013-07-03 00:25:00,59.1,54.9,29.92,SW,230,1.2,1.2,86,0.00,CLR,,0.00,0.0,WeatherDisplay:10.37,2013-07-02 22:25:00,
2013-07-03 00:30:00,58.9,54.7,29.92,SW,230,0.0,0.0,86,0.00,CLR,,0.00,0.0,WeatherDisplay:10.37,2013-07-02 22:30:00,
2013-07-03 00:35:00,58.6,54.4,29.92,SW,230,1.2,1.2,86,0.00,CLR,,0.00,0.0,WeatherDisplay:10.37,2013-07-02 22:35:00,
2013-07-03 00:40:00,58.4,54.2,29.92,SW,230,0.0,0.0,86,0.00,CLR,,0.00,0.0,WeatherDisplay:10.37,2013-07-02 22:40:00,
2013-07-03 00:45:00,58.2,54.0,29.92,SW,230,1.2,1.2,86,0.00,CLR,,0.00,0.0,WeatherDisplay:10.37,2013-07-02 22:45:00,
2013-07-03 00:50:00,58.1,53.9,29.92,SW,230,1.2,1.2,86,0.00,CLR,,0.00,0.0,WeatherDisplay:10.37,2013-07-02 22:50:00,
2013-07-03 00:55:00,57.9,53.7,29.92,SW,230,0.0,0.0,86,0.00,CLR,,0.00,0.0,WeatherDisplay:10.37,2013-07-02 22:55:00,
2013-07-03 01:00:00,58.0,53.8,29.92,SW,230,1.2,1.2,86,0.00,CLR,,0.00,0.0,WeatherDisplay:10.37,2013-07-02 23:00:00,
2013-07-03 01:05:00,58.0,53.8,29.92,SW,230,2.3,2.3,86,0.00,CLR,,0.00,0.0,WeatherDisplay:10.37,2013-07-02 23:05:00,
2013-07-03 01:10:00,58.0,53.8,29.92,SW,230,2.3,2.3,86,0.00,CLR,,0.00,0.0,WeatherDisplay:10.37,2013-07-02 23:10:00,
2013-07-03 01:15:00,57.8,53.6,29.92,SW,230,1.2,1.2,86,0.00,CLR,,0.00,0.0,WeatherDisplay:10.37,2013-07-02 23:15:00,
2013-07-03 01:20:00,57.6,53.4,29.92,SW,230,2.3,2.3,86,0.00,CLR,,0.00,0.0,WeatherDisplay:10.37,2013-07-02 23:20:00,
2013-07-03 01:25:00,57.5,53.3,29.92,SW,230,0.0,0.0,86,0.00,CLR,,0.00,0.0,WeatherDisplay:10.37,2013-07-02 23:25:00,
2013-07-03 01:31:00,57.3,53.1,29.92,SW,230,1.2,1.2,86,0.00,CLR,,0.00,0.0,WeatherDisplay:10.37,2013-07-02 23:31:00,
2013-07-03 01:32:00,57.2,53.0,29.92,SW,230,1.2,0.0,86,0.00,CLR,,0.00,0.0,WeatherDisplay:10.37,2013-07-02 23:32:00,
2013-07-03 01:37:00,57.2,53.0,29.92,SW,230,0.0,0.0,86,0.00,CLR,,0.00,0.0,WeatherDisplay:10.37,2013-07-02 23:37:00,
2013-07-03 01:42:00,57.0,52.9,29.92,SW,230,1.2,1.2,86,0.00,CLR,,0.00,0.0,WeatherDisplay:10.37,2013-07-02 23:42:00,
2013-07-03 01:47:00,56.8,52.7,29.92,SW,230,2.0,2.0,86,0.00,CLR,,0.00,0.0,WeatherDisplay:10.37,2013-07-02 23:47:00,
2013-07-03 01:52:00,57.0,52.9,29.92,SW,230,2.3,2.3,86,0.00,CLR,,0.00,0.0,WeatherDisplay:10.37,2013-07-02 23:52:00,
2013-07-03 01:57:00,57.1,53.0,29.92,SW,230,2.3,2.3,86,0.00,CLR,,0.00,0.0,WeatherDisplay:10.37,2013-07-02 23:57:00,
2013-07-03 02:03:00,57.1,53.0,29.92,SW,230,0.0,0.0,86,0.00,CLR,,0.00,0.0,WeatherDisplay:10.37,2013-07-03 00:03:00,
2013-07-03 02:07:00,56.9,52.8,29.92,SW,230,2.0,2.0,86,0.00,CLR,,0.00,0.0,WeatherDisplay:10.37,2013-07-03 00:07:00,
2013-07-03 02:12:00,56.6,52.5,29.92,SW,230,0.0,0.0,86,0.00,CLR,,0.00,0.0,WeatherDisplay:10.37,2013-07-03 00:12:00,
2013-07-03 02:17:00,56.4,52.3,29.92,SW,230,2.3,2.3,86,0.00,CLR,,0.00,0.0,WeatherDisplay:10.37,2013-07-03 00:17:00,
2013-07-03 02:22:00,56.5,52.4,29.92,SW,230,0.0,0.0,86,0.00,CLR,,0.00,0.0,WeatherDisplay:10.37,2013-07-03 00:22:00,
2013-07-03 02:27:00,56.4,52.3,29.92,SW,230,0.0,0.0,86,0.00,CLR,,0.00,0.0,WeatherDisplay:10.37,2013-07-03 00:27:00,
2013-07-03 02:31:00,56.3,52.2,29.92,SW,230,1.0,1.0,86,0.00,CLR,,0.00,0.0,WeatherDisplay:10.37,2013-07-03 00:31:00,
2013-07-03 02:36:00,56.3,52.2,29.92,SW,230,0.0,0.0,86,0.00,CLR,,0.00,0.0,WeatherDisplay:10.37,2013-07-03 00:36:00,
2013-07-03 02:41:00,56.3,52.2,29.92,SW,230,1.2,1.2,86,0.00,CLR,,0.00,0.0,WeatherDisplay:10.37,2013-07-03 00:41:00,
2013-07-03 02:46:00,56.2,52.1,29.91,SW,230,0.0,0.0,86,0.00,CLR,,0.00,0.0,WeatherDisplay:10.37,2013-07-03 00:46:00,
2013-07-03 02:51:00,56.0,51.9,29.91,SW,230,2.3,2.3,86,0.00,CLR,,0.00,0.0,WeatherDisplay:10.37,2013-07-03 00:51:00,
2013-07-03 02:56:00,56.0,51.6,29.91,SW,230,1.2,0.0,85,0.00,CLR,,0.00,0.0,WeatherDisplay:10.37,2013-07-03 00:56:00,
2013-07-03 03:01:00,56.1,52.0,29.91,SW,230,2.0,2.0,86,0.00,CLR,,0.00,0.0,WeatherDisplay:10.37,2013-07-03 01:01:00,
2013-07-03 03:06:00,56.0,51.9,29.91,SW,230,2.3,2.3,86,0.00,CLR,,0.00,0.0,WeatherDisplay:10.37,2013-07-03 01:06:00,
2013-07-03 03:11:00,56.0,51.9,29.91,SW,230,1.2,0.0,86,0.00,CLR,,0.00,0.0,WeatherDisplay:10.37,2013-07-03 01:11:00,
2013-07-03 03:16:00,56.1,52.0,29.91,SW,230,0.0,0.0,86,0.00,CLR,,0.00,0.0,WeatherDisplay:10.37,2013-07-03 01:16:00,
2013-07-03 03:21:00,56.0,51.9,29.91,SW,230,0.0,0.0,86,0.00,CLR,,0.00,0.0,WeatherDisplay:10.37,2013-07-03 01:21:00,
2013-07-03 03:26:00,56.0,51.9,29.91,SW,230,0.0,0.0,86,0.00,CLR,,0.00,0.0,WeatherDisplay:10.37,2013-07-03 01:26:00,
2013-07-03 03:31:00,56.0,51.9,29.90,SW,230,0.0,0.0,86,0.00,CLR,,0.00,0.0,WeatherDisplay:10.37,2013-07-03 01:31:00,
2013-07-03 03:34:00,56.0,51.9,29.91,SW,230,0.0,0.0,86,0.00,CLR,,0.00,0.0,WeatherDisplay:10.37,2013-07-03 01:34:00,
2013-07-03 03:39:00,56.1,52.0,29.91,SW,230,0.0,0.0,86,0.00,CLR,,0.00,0.0,WeatherDisplay:10.37,2013-07-03 01:39:00,
2013-07-03 03:44:00,56.0,51.9,29.91,SW,230,0.0,0.0,86,0.00,CLR,,0.00,0.0,WeatherDisplay:10.37,2013-07-03 01:44:00,
2013-07-03 03:49:00,56.0,51.9,29.90,SW,230,0.0,0.0,86,0.00,CLR,,0.00,0.0,WeatherDisplay:10.37,2013-07-03 01:49:00,
2013-07-03 03:54:00,55.9,51.8,29.90,SW,230,0.0,0.0,86,0.00,CLR,,0.00,0.0,WeatherDisplay:10.37,2013-07-03 01:54:00,
2013-07-03 03:59:00,55.9,51.5,29.91,SW,230,0.0,0.0,85,0.00,CLR,,0.00,0.0,WeatherDisplay:10.37,2013-07-03 01:59:00,
2013-07-03 04:05:00,56.0,51.6,29.91,SW,230,1.2,0.0,85,0.00,CLR,,0.00,0.0,WeatherDisplay:10.37,2013-07-03 02:05:00,
2013-07-03 04:10:00,56.0,51.6,29.91,SW,230,0.0,0.0,85,0.00,CLR,,0.00,0.0,WeatherDisplay:10.37,2013-07-03 02:10:00,
2013-07-03 04:15:00,55.9,51.5,29.91,SW,230,2.0,2.0,85,0.00,CLR,,0.00,0.0,WeatherDisplay:10.37,2013-07-03 02:15:00,
2013-07-03 04:21:00,55.8,51.4,29.91,SW,230,2.3,2.3,85,0.00,CLR,,0.00,0.0,WeatherDisplay:10.37,2013-07-03 02:21:00,
2013-07-03 04:26:00,55.8,51.4,29.91,SW,230,0.0,0.0,85,0.00,CLR,,0.00,0.0,WeatherDisplay:10.37,2013-07-03 02:26:00,
2013-07-03 04:32:00,55.8,51.4,29.91,SW,230,2.3,2.3,85,0.00,OVC,,0.00,0.0,WeatherDisplay:10.37,2013-07-03 02:32:00,
2013-07-03 04:33:00,55.8,51.4,29.91,SW,230,1.2,0.0,85,0.00,OVC,,0.00,0.0,WeatherDisplay:10.37,2013-07-03 02:33:00,
2013-07-03 04:40:00,56.1,51.7,29.91,SW,230,3.5,3.5,85,0.00,OVC,,0.00,0.0,WeatherDisplay:10.37,2013-07-03 02:40:00,
2013-07-03 04:45:00,56.1,51.7,29.91,SW,230,3.5,3.5,85,0.00,OVC,,0.00,0.0,WeatherDisplay:10.37,2013-07-03 02:45:00,
2013-07-03 04:46:00,56.1,51.7,29.91,SW,230,3.5,3.5,85,0.00,OVC,,0.00,0.0,WeatherDisplay:10.37,2013-07-03 02:46:00,
2013-07-03 04:51:00,55.9,51.5,29.91,SW,230,2.3,2.3,85,0.00,OVC,,0.00,0.0,WeatherDisplay:10.37,2013-07-03 02:51:00,
2013-07-03 04:56:00,55.8,51.7,29.91,SW,230,1.2,0.0,86,0.00,OVC,,0.00,0.0,WeatherDisplay:10.37,2013-07-03 02:56:00,
2013-07-03 05:03:00,55.6,51.2,29.91,SW,230,1.2,0.0,85,0.00,OVC,,0.00,0.0,WeatherDisplay:10.37,2013-07-03 03:03:00,
2013-07-03 05:07:00,55.5,51.1,29.90,SW,230,0.0,0.0,85,0.00,OVC,,0.00,0.0,WeatherDisplay:10.37,2013-07-03 03:07:00,
2013-07-03 05:12:00,55.6,51.2,29.93,WNW,290,9.2,9.2,85,0.00,OVC,,0.00,5.0,WeatherDisplay:10.37,2013-07-03 03:12:00,
2013-07-03 05:17:00,56.1,51.7,29.92,WNW,290,3.5,3.5,85,0.00,OVC,,0.00,7.0,WeatherDisplay:10.37,2013-07-03 03:17:00,
2013-07-03 05:21:00,56.2,51.7,29.91,WNW,290,2.3,2.3,85,0.00,OVC,,0.00,7.0,WeatherDisplay:10.37,2013-07-03 03:21:00,
2013-07-03 05:26:00,56.0,51.6,29.92,WNW,290,2.0,2.0,85,0.00,OVC,,0.00,7.0,WeatherDisplay:10.37,2013-07-03 03:26:00,
2013-07-03 05:32:00,55.7,51.3,29.91,WNW,290,2.3,2.3,85,0.00,OVC,,0.00,11.0,WeatherDisplay:10.37,2013-07-03 03:32:00,
2013-07-03 05:35:00,55.6,51.2,29.91,WNW,290,2.3,2.3,85,0.00,OVC,,0.00,11.0,WeatherDisplay:10.37,2013-07-03 03:35:00,
2013-07-03 05:41:00,55.6,51.2,29.91,WNW,290,2.3,2.3,85,0.00,OVC,,0.00,16.0,WeatherDisplay:10.37,2013-07-03 03:41:00,
2013-07-03 05:46:00,55.9,51.5,29.91,WNW,290,3.0,3.0,85,0.00,OVC,,0.00,23.0,WeatherDisplay:10.37,2013-07-03 03:46:00,
2013-07-03 05:50:00,56.1,51.7,29.90,WNW,290,4.0,4.0,85,0.00,OVC,,0.00,28.0,WeatherDisplay:10.37,2013-07-03 03:50:00,
2013-07-03 05:55:00,56.4,51.9,29.90,WNW,293,3.5,3.5,85,0.00,OVC,,0.00,37.0,WeatherDisplay:10.37,2013-07-03 03:55:00,
2013-07-03 06:01:00,56.7,52.2,29.90,WNW,293,3.0,3.0,85,0.00,OVC,,0.00,47.0,WeatherDisplay:10.37,2013-07-03 04:01:00,
2013-07-03 06:02:00,56.7,52.2,29.90,WNW,293,3.5,3.5,85,0.00,OVC,,0.00,49.0,WeatherDisplay:10.37,2013-07-03 04:02:00,
2013-07-03 06:05:00,56.9,52.4,29.90,WNW,293,2.3,2.3,85,0.00,OVC,,0.00,49.0,WeatherDisplay:10.37,2013-07-03 04:05:00,
2013-07-03 06:09:00,57.3,52.5,29.90,NNE,20,3.5,3.5,84,0.00,BKN,,0.00,54.0,WeatherDisplay:10.37,2013-07-03 04:09:00,
2013-07-03 06:14:00,57.8,53.3,29.89,ENE,67,4.6,4.6,85,0.00,BKN,,0.00,70.0,WeatherDisplay:10.37,2013-07-03 04:14:00,
2013-07-03 06:17:00,58.0,53.5,29.89,ENE,69,5.0,5.0,85,0.00,BKN,,0.00,72.0,WeatherDisplay:10.37,2013-07-03 04:17:00,
2013-07-03 06:22:00,58.3,53.8,29.89,East,82,5.8,5.8,85,0.00,BKN,,0.00,74.0,WeatherDisplay:10.37,2013-07-03 04:22:00,
2013-07-03 06:27:00,58.6,54.4,29.89,ESE,106,3.5,3.5,86,0.00,BKN,,0.00,63.0,WeatherDisplay:10.37,2013-07-03 04:27:00,
2013-07-03 06:32:00,58.8,54.6,29.90,SSE,154,4.0,4.0,86,0.00,OVC,,0.00,47.0,WeatherDisplay:10.37,2013-07-03 04:32:00,
2013-07-03 06:37:00,58.7,54.5,29.90,South,174,5.8,5.8,86,0.00,OVC,,0.00,44.0,WeatherDisplay:10.37,2013-07-03 04:37:00,
2013-07-03 06:38:00,58.8,54.6,29.90,South,181,5.0,5.0,86,0.00,OVC,,0.00,44.0,WeatherDisplay:10.37,2013-07-03 04:38:00,
2013-07-03 06:43:00,58.5,54.3,29.90,South,177,3.5,3.5,86,0.00,OVC,,0.00,44.0,WeatherDisplay:10.37,2013-07-03 04:43:00,
2013-07-03 06:48:00,58.4,54.2,29.90,South,176,2.3,2.3,86,0.00,OVC,,0.00,42.0,WeatherDisplay:10.37,2013-07-03 04:48:00,
2013-07-03 06:50:00,58.4,54.2,29.90,South,176,2.0,2.0,86,0.00,OVC,,0.00,40.0,WeatherDisplay:10.37,2013-07-03 04:50:00,
2013-07-03 06:53:00,58.5,54.3,29.90,South,176,3.5,3.5,86,0.00,OVC,,0.00,39.0,WeatherDisplay:10.37,2013-07-03 04:53:00,
2013-07-03 06:58:00,58.5,54.3,29.90,SE,140,4.0,4.0,86,0.00,OVC,,0.00,39.0,WeatherDisplay:10.37,2013-07-03 04:58:00,
2013-07-03 07:00:00,58.6,54.4,29.90,SE,140,5.0,5.0,86,0.00,OVC,,0.00,42.0,WeatherDisplay:10.37,2013-07-03 05:00:00,
2013-07-03 07:05:00,58.5,54.3,29.90,SE,140,4.0,4.0,86,0.00,OVC,,0.00,46.0,WeatherDisplay:10.37,2013-07-03 05:05:00,
2013-07-03 07:09:00,58.6,54.4,29.90,ESE,113,4.6,4.6,86,0.00,OVC,,0.00,40.0,WeatherDisplay:10.37,2013-07-03 05:09:00,
2013-07-03 07:14:00,58.7,54.5,29.90,ESE,119,4.0,4.0,86,0.00,OVC,,0.00,37.0,WeatherDisplay:10.37,2013-07-03 05:14:00,
2013-07-03 07:19:00,58.7,54.5,29.89,ESE,103,6.0,6.0,86,0.00,OVC,,0.00,37.0,WeatherDisplay:10.37,2013-07-03 05:19:00,
2013-07-03 07:24:00,58.8,54.6,29.88,ENE,67,8.1,8.1,86,0.00,OVC,,0.00,47.0,WeatherDisplay:10.37,2013-07-03 05:24:00,
2013-07-03 07:29:00,58.9,54.7,29.88,ENE,78,7.0,7.0,86,0.00,OVC,,0.00,67.0,WeatherDisplay:10.37,2013-07-03 05:29:00,
2013-07-03 07:34:00,59.2,55.0,29.88,ESE,117,9.0,9.0,86,0.00,OVC,,0.00,74.0,WeatherDisplay:10.37,2013-07-03 05:34:00,
2013-07-03 07:39:00,59.4,55.2,29.88,ESE,122,6.0,6.0,86,0.00,OVC,,0.00,44.0,WeatherDisplay:10.37,2013-07-03 05:39:00,
2013-07-03 07:44:00,59.6,55.4,29.88,ESE,105,8.0,8.0,86,0.00,OVC,,0.00,42.0,WeatherDisplay:10.37,2013-07-03 05:44:00,
2013-07-03 07:49:00,59.8,55.6,29.88,SE,126,4.0,4.0,86,0.00,OVC,,0.00,63.0,WeatherDisplay:10.37,2013-07-03 05:49:00,
2013-07-03 07:55:00,60.1,55.9,29.88,East,90,4.0,4.0,86,0.00,OVC,,0.00,79.0,WeatherDisplay:10.37,2013-07-03 05:55:00,
2013-07-03 07:58:00,60.2,56.0,29.88,ESE,119,6.0,6.0,86,0.00,OVC,,0.00,70.0,WeatherDisplay:10.37,2013-07-03 05:58:00,
2013-07-03 08:04:00,60.2,56.0,29.89,SE,131,6.0,6.0,86,0.02,RA,,0.02,54.0,WeatherDisplay:10.37,2013-07-03 06:04:00,
2013-07-03 08:08:00,60.3,56.1,29.90,WSW,257,8.0,8.0,86,0.02,RA,,0.02,42.0,WeatherDisplay:10.37,2013-07-03 06:08:00,
2013-07-03 08:13:00,60.3,56.1,29.90,West,269,4.0,4.0,86,0.04,RA,,0.04,28.0,WeatherDisplay:10.37,2013-07-03 06:13:00,
2013-07-03 08:18:00,60.2,55.7,29.92,WSW,244,10.0,10.0,85,0.05,RA,,0.05,16.0,WeatherDisplay:10.37,2013-07-03 06:18:00,
2013-07-03 08:23:00,60.0,55.5,29.93,SSW,211,10.4,10.4,85,0.05,RA,,0.05,12.0,WeatherDisplay:10.37,2013-07-03 06:23:00,
2013-07-03 08:25:00,59.9,55.4,29.93,SSW,211,5.8,5.8,85,0.06,RA,,0.06,14.0,WeatherDisplay:10.37,2013-07-03 06:25:00,
2013-07-03 08:26:00,59.9,55.4,29.92,SSW,211,3.5,3.5,85,0.06,RA,,0.06,16.0,WeatherDisplay:10.37,2013-07-03 06:26:00,
2013-07-03 08:32:00,59.9,55.4,29.92,SSW,211,2.3,2.3,85,0.07,RA,,0.07,16.0,WeatherDisplay:10.37,2013-07-03 06:32:00,
2013-07-03 08:37:00,59.9,55.4,29.92,SSW,211,0.0,0.0,85,0.08,RA,,0.08,19.0,WeatherDisplay:10.37,2013-07-03 06:37:00,
2013-07-03 08:42:00,59.9,55.4,29.91,SSW,211,3.5,3.5,85,0.09,RA,,0.09,30.0,WeatherDisplay:10.37,2013-07-03 06:42:00,
2013-07-03 08:45:00,59.9,55.4,29.90,ENE,58,5.0,5.0,85,0.09,RA,,0.09,40.0,WeatherDisplay:10.37,2013-07-03 06:45:00,
2013-07-03 08:46:00,59.8,55.3,29.90,NE,42,6.0,6.0,85,0.09,RA,,0.09,44.0,WeatherDisplay:10.37,2013-07-03 06:46:00,
2013-07-03 08:51:00,59.9,55.4,29.89,ENE,71,3.5,3.5,85,0.09,RA,,0.09,47.0,WeatherDisplay:10.37,2013-07-03 06:51:00,
2013-07-03 08:56:00,60.0,55.5,29.89,NE,51,7.0,7.0,85,0.10,RA,,0.10,49.0,WeatherDisplay:10.37,2013-07-03 06:56:00,
2013-07-03 09:01:00,60.1,55.6,29.90,NNE,31,5.8,5.8,85,0.09,RA,,0.10,46.0,WeatherDisplay:10.37,2013-07-03 07:01:00,
2013-07-03 09:07:00,60.3,55.4,29.92,SW,216,8.0,8.0,84,0.09,OVC,,0.10,33.0,WeatherDisplay:10.37,2013-07-03 07:07:00,
2013-07-03 09:08:00,60.2,55.7,29.93,WSW,242,11.0,11.0,85,0.09,OVC,,0.10,30.0,WeatherDisplay:10.37,2013-07-03 07:08:00,
2013-07-03 09:13:00,60.1,55.6,29.93,WNW,292,10.4,10.4,85,0.07,RA,,0.11,30.0,WeatherDisplay:10.37,2013-07-03 07:13:00,
2013-07-03 09:18:00,60.0,55.5,29.92,WNW,292,4.0,4.0,85,0.07,RA,,0.12,28.0,WeatherDisplay:10.37,2013-07-03 07:18:00,
2013-07-03 09:23:00,59.9,55.4,29.92,NW,309,4.6,4.6,85,0.08,RA,,0.13,37.0,WeatherDisplay:10.37,2013-07-03 07:23:00,
2013-07-03 09:28:00,59.9,55.4,29.92,NW,309,3.5,3.5,85,0.09,RA,,0.14,60.0,WeatherDisplay:10.37,2013-07-03 07:28:00,
2013-07-03 09:33:00,60.0,55.5,29.91,NW,309,3.0,3.0,85,0.07,RA,,0.14,83.0,WeatherDisplay:10.37,2013-07-03 07:33:00,
2013-07-03 09:38:00,60.2,55.3,29.91,NW,309,0.0,0.0,84,0.07,RA,,0.15,84.0,WeatherDisplay:10.37,2013-07-03 07:38:00,
2013-07-03 09:43:00,60.3,55.4,29.92,NW,309,2.0,2.0,84,0.06,RA,,0.15,69.0,WeatherDisplay:10.37,2013-07-03 07:43:00,
2013-07-03 09:45:00,60.4,55.5,29.92,NW,309,2.3,2.3,84,0.06,RA,,0.16,56.0,WeatherDisplay:10.37,2013-07-03 07:45:00,
2013-07-03 09:50:00,60.5,55.6,29.93,NW,309,3.5,3.5,84,0.06,RA,,0.16,54.0,WeatherDisplay:10.37,2013-07-03 07:50:00,
2013-07-03 09:53:00,60.5,55.6,29.94,South,190,6.9,6.9,84,0.06,RA,,0.16,54.0,WeatherDisplay:10.37,2013-07-03 07:53:00,
2013-07-03 09:58:00,60.5,55.6,29.94,South,190,3.5,3.5,84,0.06,RA,,0.17,49.0,WeatherDisplay:10.37,2013-07-03 07:58:00,
2013-07-03 10:03:00,60.4,55.5,29.93,South,190,2.3,2.3,84,0.06,RA,,0.17,47.0,WeatherDisplay:10.37,2013-07-03 08:03:00,
2013-07-03 10:08:00,60.4,55.9,29.93,South,190,2.3,2.3,85,0.06,OVC,,0.17,51.0,WeatherDisplay:10.37,2013-07-03 08:08:00,
2013-07-03 10:09:00,60.4,55.9,29.93,South,190,1.2,1.2,85,0.06,OVC,,0.17,53.0,WeatherDisplay:10.37,2013-07-03 08:09:00,
2013-07-03 10:15:00,60.4,55.9,29.92,South,190,1.2,1.2,85,0.06,OVC,,0.17,62.0,WeatherDisplay:10.37,2013-07-03 08:15:00,
2013-07-03 10:16:00,60.5,56.0,29.92,South,190,2.0,2.0,85,0.06,OVC,,0.17,65.0,WeatherDisplay:10.37,2013-07-03 08:16:00,
2013-07-03 10:22:00,60.6,56.1,29.92,South,190,3.5,3.5,85,0.05,RA,,0.17,120.0,WeatherDisplay:10.37,2013-07-03 08:22:00,
2013-07-03 10:27:00,60.7,56.2,29.91,South,188,3.5,3.5,85,0.04,RA,,0.17,148.0,WeatherDisplay:10.37,2013-07-03 08:27:00,
2013-07-03 10:32:00,61.0,56.1,29.91,East,86,4.0,4.0,84,0.03,OVC,,0.17,165.0,WeatherDisplay:10.37,2013-07-03 08:32:00,
2013-07-03 10:37:00,61.5,56.6,29.91,East,84,5.0,5.0,84,0.02,OVC,,0.17,234.0,WeatherDisplay:10.37,2013-07-03 08:37:00,
2013-07-03 10:41:00,61.7,56.8,29.91,East,92,6.0,6.0,84,0.02,OVC,,0.17,244.0,WeatherDisplay:10.37,2013-07-03 08:41:00,
2013-07-03 10:45:00,61.6,57.0,29.91,ENE,73,4.0,4.0,85,0.02,OVC,,0.17,320.0,WeatherDisplay:10.37,2013-07-03 08:45:00,
2013-07-03 10:50:00,62.1,57.5,29.90,ENE,68,5.0,5.0,85,0.02,OVC,,0.17,311.0,WeatherDisplay:10.37,2013-07-03 08:50:00,
2013-07-03 10:55:00,62.6,58.0,29.90,East,82,4.6,4.6,85,0.01,OVC,,0.17,200.0,WeatherDisplay:10.37,2013-07-03 08:55:00,
2013-07-03 11:01:00,62.9,58.3,29.90,ESE,107,5.8,5.8,85,0.01,OVC,,0.17,207.0,WeatherDisplay:10.37,2013-07-03 09:01:00,
2013-07-03 11:06:00,63.2,58.9,29.90,East,92,5.8,5.8,86,0.01,OVC,,0.17,176.0,WeatherDisplay:10.37,2013-07-03 09:06:00,
2013-07-03 11:12:00,63.5,59.2,29.90,ENE,72,7.0,7.0,86,0.01,OVC,,0.17,179.0,WeatherDisplay:10.37,2013-07-03 09:12:00,
2013-07-03 11:17:00,63.5,59.6,29.90,East,80,5.0,5.0,87,0.01,OVC,,0.17,197.0,WeatherDisplay:10.37,2013-07-03 09:17:00,
2013-07-03 11:22:00,63.6,59.7,29.90,East,99,6.0,6.0,87,0.00,OVC,,0.17,207.0,WeatherDisplay:10.37,2013-07-03 09:22:00,
2013-07-03 11:27:00,63.7,59.8,29.90,East,94,6.9,6.9,87,0.00,OVC,,0.17,248.0,WeatherDisplay:10.37,2013-07-03 09:27:00,
2013-07-03 11:32:00,64.0,60.1,29.90,East,84,5.8,5.8,87,0.00,OVC,,0.17,209.0,WeatherDisplay:10.37,2013-07-03 09:32:00,
2013-07-03 11:37:00,64.4,60.1,29.90,ESE,109,5.0,5.0,86,0.00,OVC,,0.17,160.0,WeatherDisplay:10.37,2013-07-03 09:37:00,
2013-07-03 11:42:00,64.5,60.5,29.90,East,83,5.0,5.0,87,0.00,OVC,,0.17,156.0,WeatherDisplay:10.37,2013-07-03 09:42:00,
2013-07-03 11:43:00,64.5,60.5,29.90,ESE,117,6.0,6.0,87,0.00,OVC,,0.17,162.0,WeatherDisplay:10.37,2013-07-03 09:43:00,
2013-07-03 11:48:00,64.8,60.5,29.90,ESE,117,4.0,4.0,86,0.00,OVC,,0.17,206.0,WeatherDisplay:10.37,2013-07-03 09:48:00,
2013-07-03 11:52:00,65.0,61.0,29.90,East,96,4.6,4.6,87,0.00,OVC,,0.17,185.0,WeatherDisplay:10.37,2013-07-03 09:52:00,
2013-07-03 11:57:00,65.2,60.9,29.89,East,96,3.5,3.5,86,0.00,OVC,,0.17,160.0,WeatherDisplay:10.37,2013-07-03 09:57:00,
2013-07-03 11:59:00,65.3,61.3,29.89,East,97,4.6,4.6,87,0.00,OVC,,0.17,153.0,WeatherDisplay:10.37,2013-07-03 09:59:00,
2013-07-03 12:04:00,65.5,61.5,29.90,East,97,4.6,4.6,87,0.00,OVC,,0.17,156.0,WeatherDisplay:10.37,2013-07-03 10:04:00,
2013-07-03 12:08:00,65.7,61.7,29.90,East,97,5.0,5.0,87,0.00,OVC,,0.17,155.0,WeatherDisplay:10.37,2013-07-03 10:08:00,
2013-07-03 12:13:00,65.8,61.8,29.90,East,97,2.3,2.3,87,0.00,OVC,,0.17,197.0,WeatherDisplay:10.37,2013-07-03 10:13:00,
2013-07-03 12:18:00,66.1,61.8,29.89,East,92,5.0,5.0,86,0.00,OVC,,0.17,308.0,WeatherDisplay:10.37,2013-07-03 10:18:00,
2013-07-03 12:24:00,66.6,62.3,29.89,East,81,6.0,6.0,86,0.00,OVC,,0.17,323.0,WeatherDisplay:10.37,2013-07-03 10:24:00,
2013-07-03 12:29:00,67.1,62.8,29.89,East,80,5.0,5.0,86,0.00,OVC,,0.17,287.0,WeatherDisplay:10.37,2013-07-03 10:29:00,
2013-07-03 12:34:00,67.8,63.5,29.89,ENE,73,4.0,4.0,86,0.00,BKN,,0.17,835.0,WeatherDisplay:10.37,2013-07-03 10:34:00,
2013-07-03 12:38:00,69.0,64.3,29.89,ENE,60,6.0,6.0,85,0.00,FEW,,0.17,1130.0,WeatherDisplay:10.37,2013-07-03 10:38:00,
2013-07-03 12:43:00,70.3,65.6,29.89,NE,50,6.0,6.0,85,0.00,BKN,,0.17,585.0,WeatherDisplay:10.37,2013-07-03 10:43:00,
2013-07-03 12:48:00,70.2,64.4,29.89,ENE,76,3.5,3.5,82,0.00,BKN,,0.17,485.0,WeatherDisplay:10.37,2013-07-03 10:48:00,
2013-07-03 12:53:00,71.2,65.8,29.89,ENE,64,6.0,6.0,83,0.00,FEW,,0.17,972.0,WeatherDisplay:10.37,2013-07-03 10:53:00,
2013-07-03 12:55:00,71.6,65.8,29.89,NE,40,10.4,10.4,82,0.00,FEW,,0.17,986.0,WeatherDisplay:10.37,2013-07-03 10:55:00,
2013-07-03 12:57:00,72.0,66.2,29.89,East,82,5.8,5.8,82,0.00,FEW,,0.17,962.0,WeatherDisplay:10.37,2013-07-03 10:57:00,
2013-07-03 13:03:00,72.3,64.3,29.89,ESE,105,10.4,10.4,76,0.00,SCT,,0.17,483.0,WeatherDisplay:10.37,2013-07-03 11:03:00,
2013-07-03 13:09:00,71.4,63.8,29.89,East,81,8.1,8.1,77,0.00,OVC,,0.17,385.0,WeatherDisplay:10.37,2013-07-03 11:09:00,
2013-07-03 13:10:00,71.4,64.2,29.89,East,90,7.0,7.0,78,0.00,OVC,,0.17,373.0,WeatherDisplay:10.37,2013-07-03 11:10:00,
2013-07-03 13:16:00,71.4,64.2,29.89,ENE,77,8.1,8.1,78,0.00,OVC,,0.17,311.0,WeatherDisplay:10.37,2013-07-03 11:16:00,
2013-07-03 13:20:00,71.2,64.4,29.89,ENE,76,5.8,5.8,79,0.00,OVC,,0.17,294.0,WeatherDisplay:10.37,2013-07-03 11:20:00,
2013-07-03 13:25:00,71.3,64.8,29.88,East,80,6.0,6.0,80,0.00,OVC,,0.17,257.0,WeatherDisplay:10.37,2013-07-03 11:25:00,
2013-07-03 13:26:00,71.4,64.5,29.88,ENE,58,5.8,5.8,79,0.00,OVC,,0.17,251.0,WeatherDisplay:10.37,2013-07-03 11:26:00,
2013-07-03 13:31:00,71.6,65.8,29.88,ENE,65,4.0,4.0,82,0.00,OVC,,0.17,276.0,WeatherDisplay:10.37,2013-07-03 11:31:00,
2013-07-03 13:36:00,71.8,65.3,29.88,ENE,63,5.0,5.0,80,0.00,OVC,,0.17,329.0,WeatherDisplay:10.37,2013-07-03 11:36:00,
2013-07-03 13:41:00,72.0,65.8,29.88,NE,55,4.6,4.6,81,0.00,OVC,,0.17,327.0,WeatherDisplay:10.37,2013-07-03 11:41:00,
2013-07-03 13:46:00,72.1,65.6,29.88,NE,46,4.6,4.6,80,0.00,OVC,,0.17,322.0,WeatherDisplay:10.37,2013-07-03 11:46:00,
2013-07-03 13:51:00,72.3,64.7,29.88,ENE,71,4.6,4.6,77,0.00,OVC,,0.17,306.0,WeatherDisplay:10.37,2013-07-03 11:51:00,
2013-07-03 13:57:00,72.5,65.6,29.88,East,88,3.5,3.5,79,0.00,OVC,,0.17,302.0,WeatherDisplay:10.37,2013-07-03 11:57:00,
2013-07-03 14:02:00,72.8,65.9,29.88,NE,55,4.0,4.0,79,0.00,OVC,,0.17,302.0,WeatherDisplay:10.37,2013-07-03 12:02:00,
2013-07-03 14:06:00,73.0,66.1,29.88,East,92,4.6,4.6,79,0.00,OVC,,0.17,316.0,WeatherDisplay:10.37,2013-07-03 12:06:00,
2013-07-03 14:11:00,73.2,65.9,29.88,NE,49,6.0,6.0,78,0.00,OVC,,0.17,362.0,WeatherDisplay:10.37,2013-07-03 12:11:00,
2013-07-03 14:16:00,73.4,66.5,29.88,NE,53,6.0,6.0,79,0.00,BKN,,0.17,434.0,WeatherDisplay:10.37,2013-07-03 12:16:00,
2013-07-03 14:18:00,73.6,66.7,29.88,NE,54,4.6,4.6,79,0.00,BKN,,0.17,439.0,WeatherDisplay:10.37,2013-07-03 12:18:00,
2013-07-03 14:22:00,73.9,66.6,29.87,East,92,4.6,4.6,78,0.00,BKN,,0.17,429.0,WeatherDisplay:10.37,2013-07-03 12:22:00,
2013-07-03 14:27:00,74.2,66.9,29.87,NE,38,4.6,4.6,78,0.00,BKN,,0.17,431.0,WeatherDisplay:10.37,2013-07-03 12:27:00,
2013-07-03 14:32:00,74.4,66.7,29.87,NNE,21,4.6,4.6,77,0.00,BKN,,0.17,432.0,WeatherDisplay:10.37,2013-07-03 12:32:00,
2013-07-03 14:38:00,74.6,66.5,29.87,ENE,59,5.8,5.8,76,0.00,FEW,,0.17,837.0,WeatherDisplay:10.37,2013-07-03 12:38:00,
2013-07-03 14:43:00,75.1,67.4,29.87,ENE,61,3.5,3.5,77,0.00,SCT,,0.17,747.0,WeatherDisplay:10.37,2013-07-03 12:43:00,
2013-07-03 14:49:00,75.6,66.7,29.87,NE,46,6.0,6.0,74,0.00,BKN,,0.17,503.0,WeatherDisplay:10.37,2013-07-03 12:49:00,
2013-07-03 14:51:00,75.7,68.0,29.87,NE,47,4.6,4.6,77,0.00,BKN,,0.17,450.0,WeatherDisplay:10.37,2013-07-03 12:51:00,
2013-07-03 14:57:00,75.9,67.0,29.87,NE,36,6.0,6.0,74,0.00,SCT,,0.17,745.0,WeatherDisplay:10.37,2013-07-03 12:57:00,
2013-07-03 15:02:00,76.0,67.1,29.87,East,96,5.8,5.8,74,0.00,FEW,,0.17,814.0,WeatherDisplay:10.37,2013-07-03 13:02:00,
2013-07-03 15:08:00,75.9,66.6,29.87,East,86,3.5,3.5,73,0.00,OVC,,0.17,283.0,WeatherDisplay:10.37,2013-07-03 13:08:00,
2013-07-03 15:13:00,75.6,65.9,29.87,East,86,1.2,1.2,72,0.00,BKN,,0.17,454.0,WeatherDisplay:10.37,2013-07-03 13:13:00,
2013-07-03 15:19:00,75.6,67.5,29.87,ENE,59,3.5,3.5,76,0.00,OVC,,0.17,397.0,WeatherDisplay:10.37,2013-07-03 13:19:00,
2013-07-03 15:24:00,75.8,67.3,29.87,ENE,59,3.5,3.5,75,0.00,SCT,,0.17,527.0,WeatherDisplay:10.37,2013-07-03 13:24:00,
2013-07-03 15:26:00,76.1,67.6,29.87,ENE,59,3.5,3.5,75,0.00,SCT,,0.17,527.0,WeatherDisplay:10.37,2013-07-03 13:26:00,
2013-07-03 15:31:00,76.6,68.1,29.87,ENE,57,3.5,3.5,75,0.00,BKN,,0.17,541.0,WeatherDisplay:10.37,2013-07-03 13:31:00,
2013-07-03 15:36:00,76.5,67.2,29.87,NE,55,3.0,3.0,73,0.00,BKN,,0.17,406.0,WeatherDisplay:10.37,2013-07-03 13:36:00,
2013-07-03 15:41:00,76.6,68.1,29.87,NE,55,2.0,2.0,75,0.00,BKN,,0.17,318.0,WeatherDisplay:10.37,2013-07-03 13:41:00,
2013-07-03 15:47:00,76.3,67.4,29.86,NE,48,3.5,3.5,74,0.00,OVC,,0.17,229.0,WeatherDisplay:10.37,2013-07-03 13:47:00,
2013-07-03 15:50:00,76.0,67.1,29.86,NE,46,3.5,3.5,74,0.00,OVC,,0.17,207.0,WeatherDisplay:10.37,2013-07-03 13:50:00,
2013-07-03 15:55:00,75.5,67.4,29.86,NE,46,3.5,3.5,76,0.00,OVC,,0.17,188.0,WeatherDisplay:10.37,2013-07-03 13:55:00,
2013-07-03 16:00:00,75.1,67.8,29.86,North,9,4.0,4.0,78,0.00,OVC,,0.17,185.0,WeatherDisplay:10.37,2013-07-03 14:00:00,
2013-07-03 16:05:00,74.7,67.0,29.86,NNW,345,3.5,3.5,77,0.00,OVC,,0.17,188.0,WeatherDisplay:10.37,2013-07-03 14:05:00,
2013-07-03 16:08:00,74.6,67.7,29.86,NW,307,4.0,4.0,79,0.00,OVC,,0.17,195.0,WeatherDisplay:10.37,2013-07-03 14:08:00,
2013-07-03 16:10:00,74.5,67.9,29.86,NW,306,4.0,4.0,80,0.00,OVC,,0.17,209.0,WeatherDisplay:10.37,2013-07-03 14:10:00,
2013-07-03 16:16:00,74.6,68.0,29.86,WNW,292,4.0,4.0,80,0.00,OVC,,0.17,271.0,WeatherDisplay:10.37,2013-07-03 14:16:00,
2013-07-03 16:19:00,74.7,67.8,29.86,WNW,292,5.0,5.0,79,0.00,OVC,,0.17,309.0,WeatherDisplay:10.37,2013-07-03 14:19:00,
2013-07-03 16:24:00,75.0,68.0,29.86,NW,305,5.0,5.0,79,0.00,BKN,,0.17,441.0,WeatherDisplay:10.37,2013-07-03 14:24:00,
2013-07-03 16:30:00,75.7,67.6,29.86,WNW,292,5.8,5.8,76,0.00,SCT,,0.17,420.0,WeatherDisplay:10.37,2013-07-03 14:30:00,
2013-07-03 16:37:00,76.8,68.3,29.86,WNW,290,6.0,6.0,75,0.00,FEW,,0.17,643.0,WeatherDisplay:10.37,2013-07-03 14:37:00,
2013-07-03 16:42:00,77.2,68.7,29.87,WSW,246,4.6,4.6,75,0.00,OVC,,0.17,209.0,WeatherDisplay:10.37,2013-07-03 14:42:00,
2013-07-03 16:47:00,76.7,68.9,29.87,WSW,257,4.0,4.0,77,0.00,OVC,,0.17,253.0,WeatherDisplay:10.37,2013-07-03 14:47:00,
2013-07-03 16:52:00,76.1,68.0,29.87,WNW,282,5.8,5.8,76,0.00,BKN,,0.17,279.0,WeatherDisplay:10.37,2013-07-03 14:52:00,
2013-07-03 16:56:00,76.0,67.5,29.86,WNW,282,3.5,3.5,75,0.00,BKN,,0.17,332.0,WeatherDisplay:10.37,2013-07-03 14:56:00,
2013-07-03 16:58:00,76.3,68.6,29.86,WNW,282,3.5,3.5,77,0.00,CLR,,0.17,675.0,WeatherDisplay:10.37,2013-07-03 14:58:00,
2013-07-03 17:03:00,77.4,68.1,29.86,WNW,282,4.0,4.0,73,0.00,SCT,,0.17,422.0,WeatherDisplay:10.37,2013-07-03 15:03:00,
2013-07-03 17:05:00,77.5,68.6,29.86,WNW,292,5.0,5.0,74,0.00,SCT,,0.17,450.0,WeatherDisplay:10.37,2013-07-03 15:05:00,
2013-07-03 17:10:00,77.5,68.2,29.86,NW,315,4.0,4.0,73,0.00,SCT,,0.17,454.0,WeatherDisplay:10.37,2013-07-03 15:10:00,
2013-07-03 17:16:00,77.6,67.9,29.86,NW,315,3.5,3.5,72,0.00,SCT,,0.17,636.0,WeatherDisplay:10.37,2013-07-03 15:16:00,
2013-07-03 17:21:00,78.1,67.5,29.86,NW,315,3.5,3.5,70,0.00,CLR,,0.17,622.0,WeatherDisplay:10.37,2013-07-03 15:21:00,
2013-07-03 17:26:00,78.9,68.3,29.86,NW,315,3.5,3.5,70,0.00,CLR,,0.17,547.0,WeatherDisplay:10.37,2013-07-03 15:26:00,
2013-07-03 17:28:00,79.2,69.0,29.86,NW,315,3.5,3.5,71,0.00,CLR,,0.17,601.0,WeatherDisplay:10.37,2013-07-03 15:28:00,
2013-07-03 17:33:00,79.5,67.1,29.86,NW,315,3.5,3.5,66,0.00,CLR,,0.17,464.0,WeatherDisplay:10.37,2013-07-03 15:33:00,
2013-07-03 17:38:00,79.3,67.4,29.87,NW,315,3.5,3.5,67,0.00,SCT,,0.17,339.0,WeatherDisplay:10.37,2013-07-03 15:38:00,
2013-07-03 17:40:00,79.1,66.8,29.87,NW,315,2.3,2.3,66,0.00,SCT,,0.17,374.0,WeatherDisplay:10.37,2013-07-03 15:40:00,
2013-07-03 17:45:00,78.8,66.9,29.87,NW,315,3.5,3.5,67,0.00,BKN,,0.17,262.0,WeatherDisplay:10.37,2013-07-03 15:45:00,
2013-07-03 17:50:00,78.4,69.0,29.87,NW,315,2.3,2.3,73,0.00,BKN,,0.17,211.0,WeatherDisplay:10.37,2013-07-03 15:50:00,
2013-07-03 17:52:00,78.2,68.0,29.87,NW,315,2.3,2.3,71,0.00,BKN,,0.17,204.0,WeatherDisplay:10.37,2013-07-03 15:52:00,
2013-07-03 17:53:00,78.1,67.1,29.87,NW,315,2.0,2.0,69,0.00,BKN,,0.17,200.0,WeatherDisplay:10.37,2013-07-03 15:53:00,
2013-07-03 17:59:00,77.4,65.6,29.86,NW,315,3.5,3.5,67,0.00,OVC,,0.17,151.0,WeatherDisplay:10.37,2013-07-03 15:59:00,
2013-07-03 18:04:00,76.8,66.7,29.85,NW,308,5.0,5.0,71,0.00,OVC,,0.17,169.0,WeatherDisplay:10.37,2013-07-03 16:04:00,
2013-07-03 18:09:00,76.6,66.9,29.85,West,270,5.8,5.8,72,0.00,FEW,,0.17,417.0,WeatherDisplay:10.37,2013-07-03 16:09:00,
2013-07-03 18:15:00,77.4,66.8,29.85,West,280,6.9,6.9,70,0.00,CLR,,0.17,429.0,WeatherDisplay:10.37,2013-07-03 16:15:00,
2013-07-03 18:20:00,77.7,66.3,29.86,West,280,5.8,5.8,68,0.00,FEW,,0.17,387.0,WeatherDisplay:10.37,2013-07-03 16:20:00,
2013-07-03 18:25:00,77.8,65.1,29.88,ENE,67,13.0,13.0,65,0.00,BKN,,0.17,185.0,WeatherDisplay:10.37,2013-07-03 16:25:00,
2013-07-03 18:30:00,73.6,61.1,29.88,East,80,20.0,20.0,65,0.00,OVC,,0.17,125.0,WeatherDisplay:10.37,2013-07-03 16:30:00,
2013-07-03 18:35:00,70.8,61.7,29.88,SE,146,11.5,11.5,73,0.00,BKN,,0.17,181.0,WeatherDisplay:10.37,2013-07-03 16:35:00,
2013-07-03 18:40:00,69.8,61.1,29.89,SSE,148,15.0,15.0,74,0.00,BKN,,0.17,171.0,WeatherDisplay:10.37,2013-07-03 16:40:00,
2013-07-03 18:45:00,68.9,61.4,29.89,ESE,115,13.8,13.8,77,0.00,SCT,,0.17,262.0,WeatherDisplay:10.37,2013-07-03 16:45:00,
2013-07-03 18:50:00,68.3,61.5,29.89,ESE,113,9.2,9.2,79,0.00,SCT,,0.17,264.0,WeatherDisplay:10.37,2013-07-03 16:50:00,
2013-07-03 18:55:00,68.1,61.7,29.88,ESE,122,8.1,8.1,80,0.00,SCT,,0.17,188.0,WeatherDisplay:10.37,2013-07-03 16:55:00,
2013-07-03 19:00:00,68.2,61.8,29.88,SE,129,7.0,7.0,80,0.00,BKN,,0.17,167.0,WeatherDisplay:10.37,2013-07-03 17:00:00,
2013-07-03 19:05:00,68.0,61.2,29.88,SE,129,9.2,9.2,79,0.00,SCT,,0.17,169.0,WeatherDisplay:10.37,2013-07-03 17:05:00,
2013-07-03 19:10:00,68.0,61.6,29.88,SE,134,6.0,6.0,80,0.00,SCT,,0.17,174.0,WeatherDisplay:10.37,2013-07-03 17:10:00,
2013-07-03 19:16:00,68.2,61.4,29.88,SE,133,6.9,6.9,79,0.00,SCT,,0.17,163.0,WeatherDisplay:10.37,2013-07-03 17:16:00,
2013-07-03 19:21:00,68.4,61.6,29.88,SE,132,8.1,8.1,79,0.00,SCT,,0.17,151.0,WeatherDisplay:10.37,2013-07-03 17:21:00,
2013-07-03 19:26:00,68.4,61.6,29.88,ESE,109,6.9,6.9,79,0.00,SCT,,0.17,153.0,WeatherDisplay:10.37,2013-07-03 17:26:00,
2013-07-03 19:32:00,68.1,61.3,29.88,ESE,102,9.2,9.2,79,0.00,SCT,,0.17,144.0,WeatherDisplay:10.37,2013-07-03 17:32:00,
2013-07-03 19:37:00,67.9,61.5,29.88,SE,130,8.0,8.0,80,0.00,SCT,,0.17,128.0,WeatherDisplay:10.37,2013-07-03 17:37:00,
2013-07-03 19:42:00,67.7,61.3,29.88,East,101,6.0,6.0,80,0.00,SCT,,0.17,116.0,WeatherDisplay:10.37,2013-07-03 17:42:00,
2013-07-03 19:47:00,67.4,61.4,29.88,East,90,6.9,6.9,81,0.00,SCT,,0.17,105.0,WeatherDisplay:10.37,2013-07-03 17:47:00,
2013-07-03 19:52:00,67.2,61.2,29.88,SE,127,6.0,6.0,81,0.00,SCT,,0.17,97.0,WeatherDisplay:10.37,2013-07-03 17:52:00,
2013-07-03 19:57:00,67.0,61.3,29.89,East,94,3.5,3.5,82,0.00,SCT,,0.17,86.0,WeatherDisplay:10.37,2013-07-03 17:57:00,
2013-07-03 20:02:00,66.8,61.1,29.89,ENE,75,5.8,5.8,82,0.00,BKN,,0.17,72.0,WeatherDisplay:10.37,2013-07-03 18:02:00,
2013-07-03 20:08:00,66.3,61.0,29.89,NE,46,6.9,6.9,83,0.00,BKN,,0.17,58.0,WeatherDisplay:10.37,2013-07-03 18:08:00,
2013-07-03 20:14:00,65.7,60.7,29.89,NE,49,5.0,5.0,84,0.00,BKN,,0.17,51.0,WeatherDisplay:10.37,2013-07-03 18:14:00,
2013-07-03 20:19:00,65.5,60.9,29.89,NE,49,4.6,4.6,85,0.00,BKN,,0.17,46.0,WeatherDisplay:10.37,2013-07-03 18:19:00,
2013-07-03 20:24:00,65.2,60.6,29.89,NE,49,3.5,3.5,85,0.00,OVC,,0.17,35.0,WeatherDisplay:10.37,2013-07-03 18:24:00,
2013-07-03 20:29:00,65.1,60.5,29.90,NE,49,3.0,3.0,85,0.00,OVC,,0.17,26.0,WeatherDisplay:10.37,2013-07-03 18:29:00,
2013-07-03 20:34:00,64.9,60.3,29.90,NE,49,3.5,3.5,85,0.00,OVC,,0.17,21.0,WeatherDisplay:10.37,2013-07-03 18:34:00,
2013-07-03 20:39:00,64.8,60.2,29.90,NE,49,2.3,2.3,85,0.00,OVC,,0.17,19.0,WeatherDisplay:10.37,2013-07-03 18:39:00,
2013-07-03 20:45:00,64.7,60.4,29.91,NE,49,0.0,0.0,86,0.00,OVC,,0.17,19.0,WeatherDisplay:10.37,2013-07-03 18:45:00,
2013-07-03 20:50:00,64.6,60.3,29.91,NE,49,0.0,0.0,86,0.00,OVC,,0.17,18.0,WeatherDisplay:10.37,2013-07-03 18:50:00,
2013-07-03 20:55:00,64.6,60.0,29.92,NE,49,0.0,0.0,85,0.00,BKN,,0.17,16.0,WeatherDisplay:10.37,2013-07-03 18:55:00,
2013-07-03 21:02:00,64.7,60.1,29.92,NE,49,1.2,0.0,85,0.00,BKN,,0.17,14.0,WeatherDisplay:10.37,2013-07-03 19:02:00,
2013-07-03 21:08:00,64.6,60.3,29.92,NE,49,0.0,0.0,86,0.00,SCT,,0.17,11.0,WeatherDisplay:10.37,2013-07-03 19:08:00,
2013-07-03 21:13:00,64.5,60.2,29.92,NE,49,0.0,0.0,86,0.00,BKN,,0.17,0.0,WeatherDisplay:10.37,2013-07-03 19:13:00,
2013-07-03 21:18:00,64.4,60.1,29.93,NE,49,1.2,1.2,86,0.00,OVC,,0.17,5.0,WeatherDisplay:10.37,2013-07-03 19:18:00,
2013-07-03 21:23:00,64.2,59.9,29.93,NE,49,0.0,0.0,86,0.00,OVC,,0.17,7.0,WeatherDisplay:10.37,2013-07-03 19:23:00,
2013-07-03 21:29:00,64.1,59.8,29.93,NE,49,3.5,3.5,86,0.00,OVC,,0.17,0.0,WeatherDisplay:10.37,2013-07-03 19:29:00,
2013-07-03 21:34:00,63.9,59.6,29.93,NE,49,3.5,3.5,86,0.00,OVC,,0.17,0.0,WeatherDisplay:10.37,2013-07-03 19:34:00,
2013-07-03 21:39:00,63.9,59.6,29.93,NE,49,3.5,3.5,86,0.00,OVC,,0.17,0.0,WeatherDisplay:10.37,2013-07-03 19:39:00,
2013-07-03 21:44:00,63.9,59.6,29.93,NE,50,5.0,5.0,86,0.00,CLR,,0.17,0.0,WeatherDisplay:10.37,2013-07-03 19:44:00,
2013-07-03 21:49:00,63.9,59.6,29.94,NE,51,4.6,4.6,86,0.00,CLR,,0.17,0.0,WeatherDisplay:10.37,2013-07-03 19:49:00,
2013-07-03 21:54:00,63.9,59.6,29.94,NE,51,3.0,3.0,86,0.00,CLR,,0.17,0.0,WeatherDisplay:10.37,2013-07-03 19:54:00,
2013-07-03 21:59:00,63.9,59.6,29.94,NE,51,4.0,4.0,86,0.00,CLR,,0.17,0.0,WeatherDisplay:10.37,2013-07-03 19:59:00,
2013-07-03 22:04:00,63.9,59.6,29.94,NE,51,3.5,3.5,86,0.00,CLR,,0.17,0.0,WeatherDisplay:10.37,2013-07-03 20:04:00,
2013-07-03 22:09:00,63.8,59.5,29.94,NE,51,3.5,3.5,86,0.00,CLR,,0.17,0.0,WeatherDisplay:10.37,2013-07-03 20:09:00,
2013-07-03 22:15:00,63.7,59.4,29.94,NE,51,3.5,3.5,86,0.00,CLR,,0.17,0.0,WeatherDisplay:10.37,2013-07-03 20:15:00,
2013-07-03 22:20:00,63.6,59.3,29.94,NE,51,3.5,3.5,86,0.00,CLR,,0.17,0.0,WeatherDisplay:10.37,2013-07-03 20:20:00,
2013-07-03 22:25:00,63.6,59.3,29.95,NE,51,2.3,2.3,86,0.00,CLR,,0.17,0.0,WeatherDisplay:10.37,2013-07-03 20:25:00,
2013-07-03 22:30:00,63.5,59.2,29.95,NE,51,2.3,2.3,86,0.00,CLR,,0.17,0.0,WeatherDisplay:10.37,2013-07-03 20:30:00,
2013-07-03 22:35:00,63.4,59.1,29.94,NE,51,2.3,2.3,86,0.00,CLR,,0.17,0.0,WeatherDisplay:10.37,2013-07-03 20:35:00,
2013-07-03 22:40:00,63.3,59.0,29.95,NE,51,2.3,2.3,86,0.00,CLR,,0.17,0.0,WeatherDisplay:10.37,2013-07-03 20:40:00,
2013-07-03 22:45:00,63.4,59.1,29.94,ENE,75,3.5,3.5,86,0.00,CLR,,0.17,0.0,WeatherDisplay:10.37,2013-07-03 20:45:00,
2013-07-03 22:51:00,63.3,59.0,29.95,ENE,75,2.0,2.0,86,0.00,CLR,,0.17,0.0,WeatherDisplay:10.37,2013-07-03 20:51:00,
2013-07-03 22:56:00,63.4,59.1,29.95,ENE,75,3.5,3.5,86,0.00,CLR,,0.17,0.0,WeatherDisplay:10.37,2013-07-03 20:56:00,
2013-07-03 23:01:00,63.5,59.2,29.95,ENE,75,1.2,1.2,86,0.00,CLR,,0.17,0.0,WeatherDisplay:10.37,2013-07-03 21:01:00,
2013-07-03 23:06:00,63.5,59.2,29.95,ENE,75,3.0,3.0,86,0.00,CLR,,0.17,0.0,WeatherDisplay:10.37,2013-07-03 21:06:00,
2013-07-03 23:11:00,63.3,59.0,29.95,ENE,75,2.0,2.0,86,0.01,RA,,0.18,0.0,WeatherDisplay:10.37,2013-07-03 21:11:00,
2013-07-03 23:16:00,63.3,59.0,29.95,ENE,75,2.3,2.3,86,0.01,RA,,0.18,0.0,WeatherDisplay:10.37,2013-07-03 21:16:00,
2013-07-03 23:21:00,63.1,58.5,29.96,ENE,75,3.5,3.5,85,0.01,,,0.18,0.0,WeatherDisplay:10.37,2013-07-03 21:21:00,
2013-07-03 23:26:00,63.1,58.5,29.95,ENE,75,0.0,0.0,85,0.01,CLR,,0.18,0.0,WeatherDisplay:10.37,2013-07-03 21:26:00,
2013-07-03 23:31:00,63.0,58.4,29.95,ENE,75,3.5,3.5,85,0.01,CLR,,0.18,0.0,WeatherDisplay:10.37,2013-07-03 21:31:00,
2013-07-03 23:36:00,62.8,58.2,29.96,East,80,5.0,5.0,85,0.01,CLR,,0.18,0.0,WeatherDisplay:10.37,2013-07-03 21:36:00,
2013-07-03 23:41:00,62.9,58.3,29.97,East,94,3.5,3.5,85,0.01,CLR,,0.18,0.0,WeatherDisplay:10.37,2013-07-03 21:41:00,
2013-07-03 23:46:00,62.9,58.3,29.97,East,95,1.2,1.2,85,0.01,CLR,,0.18,0.0,WeatherDisplay:10.37,2013-07-03 21:46:00,
2013-07-03 23:51:00,62.9,58.3,29.97,East,95,0.0,0.0,85,0.01,CLR,,0.18,0.0,WeatherDisplay:10.37,2013-07-03 21:51:00,
2013-07-03 23:56:00,62.8,58.2,29.98,East,95,1.0,0.0,85,0.01,CLR,,0.18,0.0,WeatherDisplay:10.37,2013-07-03 21:56:00,